Radiation Dose measured at exhaust stack monitor of Miscellaneous Solid Waste Incinerator Building/Incinerator raregas monitor
Date,Time,Incinerator Gas Monitor(cps),Wind Direction,Wind Velocity(m/s)
2021/10/27,00:00,1.5,south-southeast,2.2
2021/10/27,00:10,1.6,south-southwest,1.7
2021/10/27,00:20,1.5,southwest,2.8
2021/10/27,00:30,1.5,southwest,2.5
2021/10/27,00:40,1.6,southwest,2.3
2021/10/27,00:50,1.6,southwest,2.3
2021/10/27,01:00,1.5,west,1.9
2021/10/27,01:10,1.4,west-northwest,2.0
2021/10/27,01:20,1.5,northwest,2.0
2021/10/27,01:30,1.5,west-northwest,1.2
2021/10/27,01:40,1.5,west-southwest,1.2
2021/10/27,01:50,1.5,west-southwest,1.2
2021/10/27,02:00,1.5,-,CALM
2021/10/27,02:10,1.4,west-northwest,2.2
2021/10/27,02:20,1.4,west-northwest,3.2
2021/10/27,02:30,1.5,west-northwest,4.7
2021/10/27,02:40,1.4,west-northwest,4.9
2021/10/27,02:50,1.5,west-northwest,4.2
2021/10/27,03:00,1.4,west-northwest,4.6
2021/10/27,03:10,1.4,west-northwest,4.0
2021/10/27,03:20,1.5,west-northwest,3.4
2021/10/27,03:30,1.5,west-northwest,3.5
2021/10/27,03:40,1.4,northwest,3.5
2021/10/27,03:50,1.5,northwest,3.6
2021/10/27,04:00,1.4,west-northwest,3.6
2021/10/27,04:10,1.5,west,2.6
2021/10/27,04:20,1.5,west-southwest,1.9
2021/10/27,04:30,1.4,west,1.2
2021/10/27,04:40,1.5,west,1.7
2021/10/27,04:50,1.5,southwest,1.4
2021/10/27,05:00,1.5,west,1.9
2021/10/27,05:10,1.5,west-southwest,3.0
2021/10/27,05:20,1.6,west-southwest,2.3
2021/10/27,05:30,1.5,west,1.7
2021/10/27,05:40,1.4,northwest,1.7
2021/10/27,05:50,1.4,northwest,1.9
2021/10/27,06:00,1.5,west,1.2
2021/10/27,06:10,1.5,west-southwest,1.4
2021/10/27,06:20,1.5,west,2.0
2021/10/27,06:30,1.5,southwest,1.4
2021/10/27,06:40,1.5,west,2.3
2021/10/27,06:50,1.5,southwest,2.0
2021/10/27,07:00,1.6,west-southwest,2.6
2021/10/27,07:10,1.5,west,3.3
2021/10/27,07:20,1.4,west-southwest,2.0
2021/10/27,07:30,1.5,southwest,2.3
2021/10/27,07:40,1.5,west-southwest,2.6
2021/10/27,07:50,1.5,west-southwest,2.3
2021/10/27,08:00,1.5,southwest,2.2
2021/10/27,08:10,1.5,southwest,2.0
2021/10/27,08:20,1.5,south-southwest,1.5
2021/10/27,08:30,1.5,south-southwest,2.0
2021/10/27,08:40,1.6,south,1.7
2021/10/27,08:50,1.5,south-southeast,2.0
2021/10/27,09:00,1.5,south-southeast,2.3
2021/10/27,09:10,1.5,south-southeast,3.8
2021/10/27,09:20,1.5,south,4.1
2021/10/27,09:30,1.6,south,3.3
2021/10/27,09:40,1.5,south-southeast,4.4
2021/10/27,09:50,1.5,south-southeast,3.8
2021/10/27,10:00,1.6,south-southeast,5.0
2021/10/27,10:10,1.4,south,4.7
2021/10/27,10:20,1.5,south-southeast,4.8
2021/10/27,10:30,1.5,south-southeast,5.2
2021/10/27,10:40,1.5,south-southeast,5.6
2021/10/27,10:50,1.5,south,5.1
2021/10/27,11:00,1.5,south-southeast,5.6
2021/10/27,11:10,1.5,south-southeast,5.6
2021/10/27,11:20,1.4,south-southeast,5.5
2021/10/27,11:30,1.5,south-southeast,4.9
2021/10/27,11:40,1.6,south-southeast,5.4
2021/10/27,11:50,1.5,south-southeast,6.5
2021/10/27,12:00,1.4,south-southeast,6.7
2021/10/27,12:10,1.6,south-southeast,7.3
2021/10/27,12:20,1.5,south-southeast,6.7
2021/10/27,12:30,1.5,south-southeast,7.1
2021/10/27,12:40,1.4,south-southeast,6.6
2021/10/27,12:50,1.5,south-southeast,6.2
2021/10/27,13:00,1.5,south-southeast,6.3
2021/10/27,13:10,1.5,south-southeast,7.6
2021/10/27,13:20,1.5,south-southeast,5.8
2021/10/27,13:30,1.5,south-southeast,6.4
2021/10/27,13:40,1.4,south-southeast,7.0
2021/10/27,13:50,1.5,south-southeast,7.6
2021/10/27,14:00,1.4,south,7.0
2021/10/27,14:10,1.5,south-southeast,6.7
2021/10/27,14:20,1.5,south,5.7
2021/10/27,14:30,1.5,south-southeast,7.5
2021/10/27,14:40,1.4,south,7.2
2021/10/27,14:50,1.5,south-southeast,6.5
2021/10/27,15:00,1.5,south,7.6
2021/10/27,15:10,1.4,south,7.4
2021/10/27,15:20,1.5,south,6.3
2021/10/27,15:30,1.6,south,6.3
2021/10/27,15:40,1.5,south,6.1
2021/10/27,15:50,1.5,south,6.2
2021/10/27,16:00,1.4,south,5.8
2021/10/27,16:10,1.5,south,5.3
2021/10/27,16:20,1.4,south-southwest,5.6
2021/10/27,16:30,1.5,south-southwest,5.8
2021/10/27,16:40,1.5,south-southwest,5.5
2021/10/27,16:50,1.6,south-southwest,4.8
2021/10/27,17:00,1.5,south,4.6
2021/10/27,17:10,1.5,south,4.7
2021/10/27,17:20,1.4,south,4.9
2021/10/27,17:30,1.5,south,4.7
2021/10/27,17:40,1.4,south,5.1
2021/10/27,17:50,1.5,south,5.9
2021/10/27,18:00,1.5,south,5.9
2021/10/27,18:10,1.5,south,5.8
2021/10/27,18:20,1.4,south,5.0
2021/10/27,18:30,1.5,south-southwest,5.6
2021/10/27,18:40,1.5,south-southwest,5.8
2021/10/27,18:50,1.5,south,5.5
2021/10/27,19:00,1.5,south,4.6
2021/10/27,19:10,1.5,south-southwest,4.2
2021/10/27,19:20,1.4,south-southwest,4.5
2021/10/27,19:30,1.5,south-southwest,4.4
2021/10/27,19:40,1.5,south,3.7
2021/10/27,19:50,1.5,south,2.8
2021/10/27,20:00,1.5,south,3.3
2021/10/27,20:10,1.5,south-southeast,2.9
2021/10/27,20:20,1.6,south-southeast,3.4
2021/10/27,20:30,1.5,south,3.7
2021/10/27,20:40,1.6,south-southeast,4.0
2021/10/27,20:50,1.5,south-southeast,4.0
2021/10/27,21:00,1.5,south-southeast,3.4
2021/10/27,21:10,1.4,south,2.8
2021/10/27,21:20,1.4,south,3.0
2021/10/27,21:30,1.5,south,2.3
2021/10/27,21:40,1.5,south,1.9
2021/10/27,21:50,1.5,south,1.2
2021/10/27,22:00,1.5,south-southeast,1.5
2021/10/27,22:10,1.6,south-southwest,1.4
2021/10/27,22:20,1.5,south,0.6
2021/10/27,22:30,1.5,south-southwest,0.6
2021/10/27,22:40,1.5,northwest,0.9
2021/10/27,22:50,1.6,north,1.1
2021/10/27,23:00,1.5,northwest,1.2
2021/10/27,23:10,1.5,west-northwest,2.5
2021/10/27,23:20,1.6,northwest,2.8
2021/10/27,23:30,1.4,north-northwest,2.9
2021/10/27,23:40,1.6,north-northwest,4.0
2021/10/27,23:50,1.4,northwest,4.4
